Location: Almena City Lake
(39.8850°N, 99.6804°W)
Time: 16:41:53
(UTC+00:00)

USA 229 - Pass Details

Date: 18 February 2020
Orbit: 986 x 1226 km, 63.4° (Epoch: 26 March)

Event Time Altitude Azimuth Distance (km) Brightness Sun altitude
Rises 02:19:08 0° 225° (SW) 3,693 7.1 -24.1°
Reaches altitude 10° 02:21:42 10° 229° (SW) 2,761 6.4 -24.6°
Maximum altitude 02:28:05 60° 308° (NW) 1,170 4.0 -25.8°
Enters shadow 02:33:22 17° 25° (NNE) 2,396 5.4 -26.8°
